Regional Weather Roundup
Issued by NWS

Home | Current Version | Previous Version | Graphics & Text | Print | Product List | Glossary On
Versions: 1 2 3 4 5 6 7 8 9 10 11 12 13 14 15 16 17 18 19 20 21 22 23 24 25 26 27 28 29 30 31 32 33 34 35 36 37 38 39 40 41 42 43 44 45 46 47 48 49 50
000
ASUS43 KLMK 240002
RWRKY
KENTUCKY REGIONAL WEATHER ROUNDUP
NATIONAL WEATHER SERVICE LOUISVILLE KY
700 PM EST MON JAN 23 2017

NOTE "FAIR" INDICATES FEW OR NO CLOUDS BELOW 12,000 FEET
WITH NO SIGNIFICANT WEATHER AND/OR OBSTRUCTIONS TO VISIBILITY.

KYZ001>023-026-027-061>063-070>075-240100-
WESTERN AND SOUTH CENTRAL KENTUCKY

CITY           SKY/WX    TMP DP  RH WIND       PRES   REMARKS
PADUCAH        CLOUDY    44  34  67 NW8       29.82R
HENDERSON      CLOUDY    43  34  70 NW13      29.79R
OWENSBORO      CLOUDY    42  36  79 NW12G20   29.78R
HOPKINSVILLE   CLOUDY    42  36  77 NW10G17   29.79R
BOWLING GREEN  CLOUDY    44  36  73 NW9G21    29.76R
GLASGOW        NOT AVBL
$$

KYZ024-025-028>034-038-045-046-053-240100-
NORTH CENTRAL KENTUCKY

CITY           SKY/WX    TMP DP  RH WIND       PRES   REMARKS
LOUISVILLE/SDF CLOUDY    46  40  79 NW12      29.70R
LOUISVILLE/LOU CLOUDY    46  40  79 NW12      29.70R
FORT KNOX      CLOUDY    43  40  89 W13       29.69R FOG
$$

KYZ035>037-039>044-047>052-055>060-089>105-240100-
NORTHEAST KENTUCKY

CITY           SKY/WX    TMP DP  RH WIND       PRES   REMARKS
LEXINGTON      CLOUDY    46  44  93 NW12      29.62R FOG
COVINGTON      DRIZZLE   46  45  96 NW12      29.62R FOG
FRANKFORT      CLOUDY    45  41  86 W10G21    29.64R FOG
$$

KYZ054-064>069-076>088-106>120-240100-
SOUTHEAST KENTUCKY

CITY           SKY/WX    TMP DP  RH WIND       PRES   REMARKS
JACKSON        LGT RAIN  46  44  93 VRB5      29.54R FOG
LONDON         CLOUDY    46  43  89 NW14      29.60R
SOMERSET       NOT AVBL
MIDDLESBORO    DRIZZLE   47  45  91 NW15G22   29.59R
MONTICELLO     LGT RAIN  44  43  96 W15       29.69R FOG
$$





USA.gov is the U.S. government's official web portal to all federal, state and local government web resources and services.